This is the latest recevied weather packets stored in our database for station/object W2MMD-13. If no packets are shown the sender has not sent any weather packets the latest 10 day(s).
| Time | Temp. | Humidity | Pressure | Rain* | Wind** | Luminosity | Snow |
|---|---|---|---|---|---|---|---|
| 1777395520 | 16.67° C | 46% | - | 0 mm | - | - | - |
| 1777394920 | 16.67° C | 44% | - | 0 mm | - | - | - |
| 1777394320 | 17.22° C | 47% | - | 0 mm | - | - | - |
| 1777393720 | 16.11° C | 49% | - | 0 mm | - | - | - |
| 1777393131 | 16.11° C | 51% | - | 0 mm | - | - | - |
| 1777393120 | 16.11° C | 51% | - | 0 mm | - | - | - |
| 1777392520 | 16.11° C | 49% | - | 0 mm | - | - | - |
| 1777391920 | 16.11° C | 48% | - | 0 mm | - | - | - |
| 1777391331 | 16.11° C | 48% | - | 0 mm | - | - | - |
| 1777391320 | 16.11° C | 48% | - | 0 mm | - | - | - |
| 1777390720 | 16.11° C | 47% | - | 0 mm | - | - | - |
| 1777390132 | 16.11° C | 49% | - | 0 mm | - | - | - |
| 1777390120 | 16.11° C | 49% | - | 0 mm | - | - | - |
| 1777389520 | 16.11° C | 51% | - | 0 mm | - | - | - |
| 1777388920 | 15.56° C | 52% | - | 0 mm | - | - | - |
| 1777388332 | 15.56° C | 53% | - | 0 mm | - | - | - |
| 1777388320 | 15.56° C | 54% | - | 0 mm | - | - | - |
| 1777387719 | 15.56° C | 53% | - | 0 mm | - | - | - |
| 1777387131 | 15° C | 56% | - | 0 mm | - | - | - |
| 1777387119 | 15° C | 56% | - | 0 mm | - | - | - |
| 1777386519 | 15° C | 55% | - | 0 mm | - | - | - |
| 1777385919 | 15° C | 56% | - | 0 mm | - | - | - |
| 1777385319 | 15° C | 56% | - | 0 mm | - | - | - |
| 1777384719 | 15° C | 53% | - | 0 mm | - | - | - |
| 1777384119 | 15.56° C | 51% | - | 0 mm | - | - | - |
* Rain latest hour (hover to see other rain measurements)
** Current wind speed in m/s (hover to see current wind gust speed)